Willard, MO

6:44 AM CST on February 24, 2017 (GMT -0600)
Springfield-Branson Regional

Weather History for KSGF - February, 2012

Change the Weather History Date:

Friday, February 3, 2012

  Actual Average Record
Temperature  
Mean Temperature 48 °F 34 °F  
Max Temperature 51 °F 45 °F 76 °F (1962)
Min Temperature 45 °F 23 °F -9 °F (2011)
Degree Days  
Heating Degree Days 17 31  
Month to date heating degree days 53 93  
Since 1 July heating degree days 2558 2906  
Cooling Degree Days 0 0  
Month to date cooling degree days 0 0  
Year to date cooling degree days 0 0  
Moisture  
Dew Point 41 °F    
Average Humidity 72    
Maximum Humidity 100    
Minimum Humidity 44    
Precipitation  
Precipitation 0.95 in 0.08 in 0.95 in (2012)
Month to date precipitation 0.95 0.23  
Year to date precipitation 1.90 2.70  
Snow  
Snow 0.00 in - - ()
Month to date snowfall 0.0  
Since 1 July snowfall 1.1  
Snow Depth 0.00 in    
Sea Level Pressure  
Sea Level Pressure 30.04 in    
Wind  
Wind Speed 18 mph (SE)    
Max Wind Speed 35 mph    
Max Gust Speed 40 mph    
Visibility 7 miles    
Events Rain    
T = Trace of Precipitation, MM = Missing Value Source: NWS Daily Summary

Daily Weather History Graph

Daily Weather History Graph

Search for Another Location

Airport or City:

Trip Planner

Search our weather history database for the weather conditions in past years. The results will help you decide how hot, cold, wet, or windy it might be!

Date:

Astronomy

Feb. 03, 2012 Rise Set
Actual Time 7:15 AM CST 5:39 PM CST
Civil Twilight 6:47 AM CST 6:07 PM CST
Nautical Twilight 6:16 AM CST 6:38 PM CST
Astronomical Twilight 5:46 AM CST 7:08 PM CST
Moon 1:44 PM CST (2/3) 3:48 AM CST (2/3)
Length of Visible Light 11h 19m
Length of Day
10h 24m
Waxing Gibbous, 82% of the Moon is Illuminated
Feb 3
Waxing Gibbous
Feb 7
Full
Feb 14
Last Quarter
Feb 21
New
Feb 29
First Quarter

Hourly Weather History & Observations

Time (CST) Temp. Windchill Dew Point Humidity Pressure Visibility Wind Dir Wind Speed Gust Speed Precip Events Conditions
12:52 AM 50.0 °F - 30.9 °F 48% 30.14 in 10.0 mi SE 19.6 mph 29.9 mph N/A   Clear
1:52 AM 50.0 °F - 30.0 °F 46% 30.13 in 10.0 mi SE 19.6 mph 27.6 mph N/A   Clear
2:52 AM 48.9 °F - 30.0 °F 48% 30.14 in 10.0 mi SE 17.3 mph 26.5 mph N/A   Clear
3:52 AM 48.0 °F - 30.0 °F 50% 30.12 in 10.0 mi SE 17.3 mph - N/A   Clear
4:52 AM 46.9 °F - 30.0 °F 52% 30.12 in 10.0 mi SE 18.4 mph 25.3 mph N/A   Clear
5:52 AM 48.0 °F - 30.0 °F 50% 30.09 in 10.0 mi SE 21.9 mph 29.9 mph N/A   Clear
6:52 AM 48.9 °F - 30.0 °F 48% 30.09 in 10.0 mi SSE 24.2 mph 31.1 mph N/A   Partly Cloudy
7:52 AM 48.9 °F - 34.0 °F 56% 30.12 in 10.0 mi SE 32.2 mph 40.3 mph 0.00 in Rain Light Rain
8:16 AM 46.4 °F 37.5 °F 39.2 °F 76% 30.11 in 2.5 mi SE 27.6 mph 32.2 mph 0.00 in Rain Heavy Rain
8:29 AM 44.6 °F 34.9 °F 39.2 °F 81% 30.11 in 10.0 mi SE 28.8 mph 33.4 mph 0.03 in Rain Light Rain
8:52 AM 45.0 °F 36.9 °F 39.0 °F 80% 30.12 in 10.0 mi SE 20.7 mph 29.9 mph 0.03 in   Overcast
9:52 AM 46.0 °F 37.6 °F 41.0 °F 83% 30.09 in 10.0 mi SE 24.2 mph 32.2 mph N/A   Overcast
10:42 AM 46.4 °F 37.4 °F 41.0 °F 81% 30.08 in 10.0 mi SE 28.8 mph 35.7 mph N/A   Overcast
10:52 AM 46.0 °F 37.6 °F 41.0 °F 83% 30.08 in 10.0 mi SE 24.2 mph 35.7 mph N/A   Overcast
11:52 AM 46.9 °F - 42.1 °F 83% 30.06 in 10.0 mi SSE 23.0 mph 32.2 mph N/A   Overcast
12:10 PM 46.4 °F 38.3 °F 42.8 °F 87% 30.04 in 10.0 mi SE 23.0 mph 34.5 mph N/A   Overcast
12:52 PM 46.9 °F - 42.1 °F 83% 30.04 in 10.0 mi SSE 24.2 mph 29.9 mph N/A   Overcast
1:52 PM 46.9 °F - 43.0 °F 86% 30.01 in 10.0 mi SE 17.3 mph 23.0 mph N/A   Overcast
2:52 PM 46.9 °F - 44.1 °F 90% 30.00 in 10.0 mi SE 16.1 mph 23.0 mph N/A   Overcast
3:52 PM 46.9 °F - 44.1 °F 90% 29.99 in 9.0 mi SE 20.7 mph 25.3 mph N/A   Overcast
4:45 PM 46.4 °F 38.5 °F 44.6 °F 93% 29.96 in 3.0 mi SE 21.9 mph 29.9 mph 0.00 in Rain Light Rain
4:52 PM 46.0 °F 38.8 °F 44.1 °F 93% 29.97 in 2.0 mi SSE 18.4 mph 29.9 mph 0.00 in Rain Rain
5:13 PM 46.4 °F 38.1 °F 44.6 °F 93% 29.94 in 4.0 mi SE 24.2 mph 32.2 mph 0.04 in Rain Rain
5:52 PM 46.0 °F - 46.0 °F 100% 30.02 in 4.0 mi Calm Calm - 0.08 in   Overcast
6:23 PM 46.4 °F 44.3 °F 44.6 °F 93% 30.01 in 2.0 mi East 4.6 mph - N/A   Overcast
6:40 PM 46.4 °F 42.9 °F 44.6 °F 93% 30.01 in 1.8 mi East 6.9 mph - N/A   Overcast
6:52 PM 46.0 °F 42.5 °F 45.0 °F 96% 30.02 in 2.0 mi ESE 6.9 mph - 0.01 in Rain Light Rain
7:37 PM 46.4 °F 41.9 °F 44.6 °F 93% 30.02 in 1.5 mi NNW 9.2 mph - 0.14 in Rain Heavy Rain
7:48 PM 46.4 °F 45.2 °F 46.4 °F 100% 30.04 in 2.5 mi NW 3.5 mph - 0.22 in Rain Heavy Rain
7:52 PM 46.0 °F 44.8 °F 46.0 °F 100% 30.04 in 2.0 mi NNE 3.5 mph - 0.24 in Rain Heavy Rain
8:01 PM 46.4 °F 43.5 °F 44.6 °F 93% 30.03 in 2.5 mi ENE 5.8 mph - 0.07 in Rain Heavy Rain
8:05 PM 46.4 °F 45.2 °F 46.4 °F 100% 30.03 in 2.5 mi East 3.5 mph - 0.09 in Rain Heavy Rain
8:26 PM 46.4 °F 41.9 °F 44.6 °F 93% 30.01 in 3.0 mi East 9.2 mph - 0.28 in Rain Heavy Rain
8:34 PM 46.4 °F 41.9 °F 44.6 °F 93% 30.00 in 4.0 mi East 9.2 mph - 0.32 in Rain Heavy Rain
8:52 PM 46.9 °F - 45.0 °F 93% 30.00 in 5.0 mi East 10.4 mph - 0.40 in Rain Rain
9:52 PM 48.0 °F - 46.0 °F 93% 29.94 in 8.0 mi ESE 17.3 mph - 0.12 in Rain Rain
10:52 PM 50.0 °F - 48.0 °F 93% 29.91 in 10.0 mi SE 12.7 mph - 0.07 in   Mostly Cloudy
11:52 PM 51.1 °F - 48.9 °F 92% 29.92 in 10.0 mi South 12.7 mph - N/A   Overcast